This is the latest recevied weather packets stored in our database for station/object K5FEP. If no packets are shown the sender has not sent any weather packets the latest 10 day(s).
| Time | Temp. | Humidity | Pressure | Rain* | Wind** | Luminosity | Snow |
|---|---|---|---|---|---|---|---|
| 1777205383 | 12.22° C | 93% | 1014.5 hPa | 0 mm | - | 69 W/m² | - |
| 1777205077 | 12.22° C | 93% | 1014.3 hPa | 0 mm | - | 25 W/m² | - |
| 1777204773 | 12.22° C | 94% | 1014.2 hPa | 0 mm | - | 19 W/m² | - |
| 1777204469 | 12.78° C | 94% | 1014 hPa | 0 mm | - | 23 W/m² | - |
| 1777204165 | 12.78° C | 94% | 1014 hPa | 0 mm | - | 25 W/m² | - |
| 1777203861 | 12.78° C | 94% | 1013.8 hPa | 0 mm | - | 20 W/m² | - |
| 1777203561 | 12.78° C | 94% | 1013.8 hPa | 0 mm | - | 14 W/m² | - |
| 1777203257 | 12.78° C | 94% | 1013.4 hPa | 0 mm | - | 19 W/m² | - |
| 1777202954 | 12.78° C | 94% | 1013.5 hPa | 0 mm | - | 42 W/m² | - |
| 1777202649 | 12.78° C | 94% | 1013.4 hPa | 0 mm | - | 43 W/m² | - |
| 1777202348 | 12.78° C | 94% | 1013.4 hPa | 0 mm | - | 47 W/m² | - |
| 1777202043 | 12.78° C | 95% | 1013.1 hPa | 0 mm | - | 23 W/m² | - |
| 1777201740 | 12.78° C | 95% | 1012.8 hPa | 0 mm | - | 15 W/m² | - |
| 1777201437 | 13.33° C | 95% | 1012.6 hPa | 0 mm | - | 4 W/m² | - |
| 1777201132 | 13.33° C | 96% | 1012.7 hPa | 0 mm | - | 5 W/m² | - |
| 1777200828 | 13.89° C | 96% | 1012.5 hPa | 0 mm | - | 2 W/m² | - |
| 1777200524 | 13.89° C | 96% | 1012.6 hPa | 0 mm | - | 2 W/m² | - |
| 1777200219 | 13.89° C | 95% | 1012.2 hPa | 0 mm | - | 1 W/m² | - |
| 1777199917 | 13.89° C | 96% | 1012.3 hPa | 0 mm | - | 1 W/m² | - |
| 1777199616 | 13.89° C | 95% | 1012.2 hPa | 0 mm | - | 1 W/m² | - |
| 1777199312 | 13.89° C | 95% | 1012 hPa | 0 mm | - | 0 W/m² | - |
| 1777199011 | 14.44° C | 95% | 1012.1 hPa | 0 mm | - | 0 W/m² | - |
| 1777198707 | 14.44° C | 95% | 1012 hPa | 0 mm | - | 0 W/m² | - |
| 1777198405 | 14.44° C | 96% | 1012 hPa | 0 mm | - | 0 W/m² | - |
| 1777198102 | 14.44° C | 96% | 1011.9 hPa | 0 mm | - | 0 W/m² | - |
* Rain latest hour (hover to see other rain measurements)
** Current wind speed in m/s (hover to see current wind gust speed)